sat.trackr.live / text

‹ back to catalog

STARLINK-37172

NORAD 68395 · 2026-063R

PAYLOAD ACTIVE UNKNOWN

§ Identity

Operator
Country
US
Launch date
2026-03-26
Launch site
AFWTR
Launch vehicle
Mass (kg)
RCS (m²)

Purposes: comms

External: N2YO · Heavens-Above · Gunter

§ Orbital elements

Epoch: 2026-09-19T09:06:18.108864Z

Period
93.91 min
Inclination
97.2852°
Eccentricity
0.0000797
Mean motion
15.33453131 rev/d
Perigee alt
465.0 km
Apogee alt
466.1 km
Semi-major
6,843.7 km
B*
6.4893e-4
RAAN
43.2102°
Arg perigee
328.8725°
Mean anomaly
31.2470°
Rev number
2,757

§ Raw data

STARLINK-371721 68395U 26063R   26262.37937626  .00020938  00000+0  64893-3 0  99932 68395  97.2852  43.2102 0000797 328.8725  31.2470 15.33453131 27573

JSON: /api/v1/satellites/68395 · /tle

For live sub-satellite position, see the globe view (requires WebGL).

§ Visibility from observer

Set your observer location to see the next 7 days of passes ≥ 10°. The values pass through the URL so the page stays shareable.

No JS? Fill the form by hand. The geolocation button needs JavaScript.